Theta_e
334 343 355 355 353 351 350 347 345 342 341 339 338 337 335 333 332 331 331 331 331 330 331 331 333 333 334 334 335 336 337 339 343 345 348 352 351 353 355 355 357 355 357
337 344 355 354 353 352 351 349 347 347 344 341 339 337 336 334 333 333 333 333 334 334 334 334 334 335 335 335 336 336 337 338 339 344 345 350 352 353 355 356 356 356 357
336 345 352 355 354 353 351 350 349 348 346 343 341 339 338 337 336 336 336 337 337 337 338 338 338 337 336 336 336 337 337 338 338 341 344 347 353 354 355 356 356 357 356
336 346 346 355 354 353 352 351 350 349 347 345 342 341 340 339 339 338 338 339 340 339 340 340 341 341 340 338 337 337 338 338 339 340 337 338 348 354 354 356 356 355 356
337 343 347 355 354 354 353 351 351 350 349 346 343 342 341 341 341 341 339 340 341 341 341 341 343 343 342 340 339 339 338 338 339 339 334 336 343 349 351 353 355 354 353
338 340 348 355 354 354 353 353 352 351 349 349 345 344 343 343 344 344 341 342 343 343 342 341 343 342 341 343 342 341 339 338 337 334 336 339 340 347 348 351 352 353 353
339 343 344 355 355 355 354 354 353 352 351 350 348 345 345 346 346 346 344 345 345 343 343 343 343 345 343 341 342 343 342 339 339 335 336 339 338 344 345 349 352 351 352
339 343 347 355 355 354 354 353 353 352 352 350 350 349 348 348 348 346 345 344 344 343 343 342 342 342 343 341 341 341 341 342 340 337 338 338 342 341 344 347 350 350 352
339 340 346 351 355 355 354 353 353 352 351 350 350 350 349 349 346 344 343 340 339 339 339 341 341 341 341 340 340 341 341 341 340 337 339 340 345 342 343 346 349 350 352
340 340 342 349 351 349 349 354 353 352 352 351 351 351 350 347 343 339 337 337 335 335 336 337 338 338 340 340 339 339 340 340 340 337 339 340 342 341 342 345 348 349 351
337 341 342 344 349 348 345 349 353 352 352 351 349 349 346 340 339 339 338 332 333 333 333 334 335 336 337 338 338 339 340 337 337 336 337 343 341 341 342 342 346 348 349
335 337 342 347 348 348 342 347 352 347 347 346 343 343 343 340 341 338 337 333 333 333 333 335 336 337 337 337 335 338 337 336 335 335 336 342 340 341 341 341 344 348 348
334 338 341 346 350 348 344 346 347 345 345 344 345 343 342 340 340 338 337 335 336 335 334 334 336 336 336 335 335 333 333 334 332 335 338 338 337 340 341 341 343 348 347
332 336 341 344 349 351 345 345 344 342 343 341 341 343 341 338 339 339 336 335 336 334 333 335 334 335 335 336 336 334 333 333 333 333 338 337 337 338 339 341 343 346 346
331 336 341 344 348 350 349 346 344 341 340 339 337 340 341 338 338 338 336 335 334 335 332 333 334 334 334 334 335 335 333 333 334 335 335 337 336 337 338 339 343 346 346
333 336 341 344 349 350 349 348 344 343 340 338 336 339 341 339 339 337 335 334 333 336 333 332 334 333 332 332 333 335 335 335 335 335 336 335 335 336 337 338 343 345 346
334 337 341 345 348 350 350 347 343 340 338 335 337 342 341 341 340 339 337 336 336 338 339 336 334 333 331 331 332 334 334 336 336 336 336 332 334 337 337 338 343 343 344
336 336 340 341 346 350 349 345 340 337 335 335 338 339 341 342 341 339 337 337 338 338 338 335 332 330 329 329 330 333 333 334 334 335 333 331 332 335 338 340 342 342 343
337 337 337 341 344 348 347 342 340 340 337 337 338 338 340 341 340 339 339 339 339 337 336 333 331 331 330 328 327 332 335 333 333 331 330 333 336 338 336 342 341 342 343
335 337 337 340 344 346 342 339 335 335 336 338 338 338 341 340 339 338 338 337 336 336 334 331 332 332 330 328 329 331 332 332 331 331 331 333 336 339 339 342 344 343 343
332 334 336 338 343 340 335 331 331 330 334 336 337 341 340 340 339 337 337 336 336 333 330 333 332 330 329 331 330 330 330 332 332 330 332 333 336 338 341 342 343 345 342
331 334 336 338 340 338 333 333 332 333 333 336 338 340 340 339 338 336 335 336 335 329 331 332 332 328 331 333 327 327 322 326 329 331 334 335 337 340 340 341 343 345 348
331 333 335 338 338 337 337 336 337 338 338 334 335 336 337 338 337 337 335 335 334 333 333 333 332 328 327 331 333 328 320 316 322 332 334 334 337 340 341 342 344 346 347
331 333 336 337 337 337 339 336 336 329 328 333 336 338 337 336 334 334 336 335 335 336 334 332 332 333 331 329 332 331 331 329 318 318 333 334 338 339 339 340 343 341 346
331 333 335 336 337 337 337 337 334 333 333 335 334 334 336 336 334 332 334 335 334 334 335 333 332 331 333 331 328 328 330 330 329 323 321 329 335 339 339 336 336 338 336
331 332 334 336 335 337 337 337 337 336 334 332 332 331 333 336 336 334 332 334 335 334 333 332 332 332 334 334 332 329 331 330 325 329 328 329 328 331 334 335 333 333 335
Wind_Speed
11 20 21 21 20 19 19 18 17 15 14 13 12 11 9 7 6 5 3 3 2 1 2 2 3 3 4 4 3 3 2 2 4 5 4 3 3 6 8 9 11 12 16
16 21 22 21 22 20 19 18 16 15 14 14 12 10 9 8 6 5 4 3 3 2 3 3 4 5 5 5 5 4 4 3 3 5 6 8 6 8 9 10 11 8 14
18 19 22 21 21 20 19 17 16 15 15 13 13 11 10 9 8 7 6 5 5 4 5 5 5 5 6 6 7 6 6 5 4 6 8 11 8 9 11 12 12 10 13
17 18 21 22 21 20 19 17 16 15 14 13 12 12 11 10 10 9 8 9 8 8 8 8 7 7 7 7 7 8 7 6 6 7 11 11 8 10 11 12 12 11 13
16 18 19 24 21 19 18 16 15 14 14 14 13 12 11 11 11 10 11 11 11 11 10 10 10 10 8 8 9 9 9 8 8 10 12 8 8 5 4 9 10 11 13
15 17 17 22 20 19 18 17 16 15 15 14 14 13 13 12 11 11 12 12 13 13 13 13 13 10 9 10 10 10 10 10 10 12 9 7 8 5 3 5 6 10 12
16 16 17 20 20 19 19 18 17 16 15 14 14 14 13 13 13 13 14 14 15 16 15 14 13 11 9 10 10 11 11 11 12 11 8 9 9 6 3 5 5 8 13
14 15 14 19 20 19 19 18 16 15 15 14 14 13 13 13 13 15 13 13 13 14 14 15 14 12 10 8 10 9 12 12 13 12 9 9 3 2 5 4 5 6 16
13 16 14 16 19 18 18 17 16 15 15 14 13 13 13 13 11 8 8 9 11 13 13 13 13 14 11 11 11 11 11 13 13 7 9 7 10 4 5 5 6 8 14
14 15 16 14 17 18 17 15 15 15 14 13 13 13 12 11 9 9 8 12 10 10 11 13 15 15 14 12 12 11 11 13 13 13 8 7 6 1 7 5 7 8 15
14 15 15 15 15 16 16 15 14 15 13 11 12 12 8 10 9 10 4 4 7 9 10 11 11 13 13 15 15 14 13 9 13 10 8 9 4 6 8 7 8 6 14
17 17 17 14 15 15 12 12 14 13 11 11 10 9 9 9 7 6 7 7 9 10 11 12 11 10 11 10 10 16 9 12 11 8 8 10 3 8 8 9 8 8 12
14 15 17 15 15 15 13 10 8 7 7 7 10 8 8 6 6 6 5 5 6 8 7 9 10 10 9 3 10 8 11 9 5 9 7 7 4 9 9 9 9 9 10
13 17 18 17 16 15 10 10 9 8 7 7 8 9 8 6 7 6 6 6 5 6 6 6 6 5 7 9 9 7 11 9 5 6 6 9 7 8 9 9 10 9 9
16 14 19 18 17 15 13 10 10 9 8 7 7 8 8 7 6 6 6 7 7 7 6 7 5 6 7 8 8 10 9 11 10 3 6 12 7 8 9 9 11 9 10
14 14 16 20 17 15 14 12 9 8 8 7 6 6 8 8 6 7 7 8 8 7 7 6 7 6 7 6 7 8 10 10 10 8 8 5 11 9 10 9 10 10 9
11 13 17 18 18 17 16 13 10 9 8 7 6 7 8 8 9 10 8 8 7 6 10 7 8 7 8 7 9 8 9 8 7 9 7 7 7 14 11 10 9 10 8
12 14 17 17 20 19 16 13 9 8 8 7 6 6 8 10 11 9 6 7 8 7 7 7 8 7 7 7 7 6 8 8 10 7 8 7 6 7 13 12 9 10 10
12 14 17 19 19 19 16 12 10 8 7 6 5 6 7 9 11 7 6 7 8 5 7 8 7 7 8 7 8 6 7 7 8 7 8 8 8 7 6 14 8 8 8
8 12 15 16 18 18 13 10 8 8 7 6 5 6 6 8 9 8 7 8 5 7 7 9 6 7 9 6 6 4 7 9 6 6 8 7 7 8 7 4 8 8 9
8 12 14 16 17 14 12 12 10 9 7 6 5 6 7 7 7 8 6 7 7 8 8 6 7 9 8 7 6 5 6 6 6 6 5 6 4 7 8 7 5 6 10
10 12 14 15 17 13 10 8 7 6 5 4 3 4 6 6 8 7 8 8 8 6 10 9 10 7 6 6 6 7 6 6 7 6 6 6 7 6 6 7 5 7 9
12 14 15 17 17 13 12 8 6 5 3 5 6 6 5 7 6 7 7 7 7 6 6 9 8 8 6 8 9 4 4 7 10 7 7 6 6 5 5 5 6 6 10
12 14 16 17 16 12 12 9 8 5 4 1 2 2 4 5 6 5 6 6 7 6 7 5 5 7 7 6 5 6 7 5 8 7 4 5 6 6 6 3 6 6 11
14 15 16 17 15 14 10 9 8 4 4 4 3 4 4 5 5 5 5 5 6 6 5 5 5 6 5 4 5 6 3 4 5 3 7 6 4 5 5 5 4 5 9
15 17 16 16 14 13 11 9 5 5 3 3 4 4 4 3 4 5 5 5 5 4 4 5 5 5 4 5 5 5 4 3 4 3 4 8 7 3 5 5 6 6 7
Wind_Direction
164 151 169 163 163 166 166 167 169 168 166 165 164 163 160 159 156 156 159 158 158 181 206 266 282 263 255 250 251 240 241 283 313 314 319 315 264 208 190 191 187 203 144
161 157 170 168 170 172 171 172 173 172 173 172 173 176 176 175 181 197 206 208 209 231 250 238 232 257 260 254 247 249 246 238 271 292 292 259 235 219 207 202 208 196 158
163 162 173 176 175 174 175 175 177 177 177 180 183 187 190 195 202 210 232 240 246 255 261 264 258 241 247 256 255 244 249 241 250 272 280 258 224 209 210 210 213 216 171
160 170 180 179 182 179 176 178 180 184 183 186 192 198 204 213 220 228 232 242 251 254 254 254 257 251 245 244 253 254 247 251 250 263 255 240 255 168 220 215 219 209 184
167 177 185 178 184 181 180 180 182 188 190 194 200 209 218 228 235 238 244 248 253 259 265 266 258 258 252 248 243 248 250 257 260 262 252 255 256 162 216 236 215 208 196
177 183 177 179 184 182 184 184 186 191 196 201 206 214 223 233 243 248 251 251 255 257 261 264 265 269 275 265 245 246 247 243 256 254 245 242 255 60 22 299 241 224 194
184 187 182 179 188 184 186 188 190 196 201 204 211 219 227 232 240 248 256 258 258 260 262 262 265 263 264 270 262 255 243 242 256 251 247 249 250 72 314 280 252 214 183
193 191 190 180 191 187 188 190 192 195 203 207 215 223 232 238 246 250 255 263 268 273 271 269 263 263 271 273 275 265 259 242 237 248 240 252 152 67 284 280 263 222 180
203 195 193 186 196 192 190 190 193 197 203 208 216 225 233 246 255 255 260 267 273 276 276 273 271 264 264 267 268 271 256 252 258 262 259 230 142 176 265 275 250 214 187
212 205 205 197 193 200 192 192 195 199 204 210 218 225 234 240 243 241 256 239 251 275 275 272 268 263 262 263 260 260 257 245 244 259 221 245 91 262 263 264 265 217 200
223 211 209 199 197 200 197 184 195 202 207 210 220 226 220 244 235 236 225 311 274 271 270 269 265 262 265 260 256 246 244 237 236 227 245 108 125 259 262 262 266 238 214
232 217 207 207 204 197 201 191 200 200 208 216 226 232 222 244 257 302 306 274 263 264 264 264 262 278 242 251 217 217 229 235 238 235 240 111 172 254 262 259 264 253 217
227 221 211 193 200 204 199 187 191 195 206 210 227 230 237 258 249 248 262 256 242 213 258 226 217 226 238 273 258 233 206 224 241 240 224 120 239 262 260 263 266 264 220
257 216 205 200 197 202 200 191 192 194 198 213 212 222 236 235 234 251 269 272 248 258 271 251 252 262 273 256 254 240 250 230 183 263 217 151 231 257 268 266 267 258 229
260 231 206 201 198 194 209 189 195 200 194 217 219 213 238 252 252 258 260 263 264 262 245 243 272 272 264 248 254 236 231 236 223 211 260 154 224 260 265 263 269 256 243
255 231 206 201 198 192 193 196 184 193 193 216 221 227 220 250 249 260 242 247 248 254 258 257 231 260 254 264 239 245 243 222 218 229 237 211 196 235 250 247 266 260 242
243 228 203 197 195 191 191 185 192 182 210 210 219 215 234 239 241 253 258 255 255 246 256 251 254 233 249 244 245 220 233 235 237 229 236 243 206 198 220 233 243 253 245
246 209 193 194 190 187 181 181 191 185 202 208 212 228 226 240 247 252 249 247 254 245 243 239 235 249 237 241 243 237 226 208 207 223 237 241 232 258 186 208 227 239 242
239 207 187 196 186 182 171 170 182 180 209 204 217 238 243 246 247 243 239 243 242 239 233 239 227 233 248 245 247 207 227 227 202 218 232 223 234 264 245 149 211 223 240
216 187 192 185 181 174 159 160 174 180 201 208 223 243 258 247 248 240 238 243 231 230 239 236 230 238 254 258 260 218 217 224 209 214 221 234 215 212 224 234 192 178 163
181 180 192 181 169 166 161 167 175 194 198 209 226 237 248 252 247 235 235 237 228 231 245 220 237 234 240 219 226 208 216 218 217 225 216 234 207 213 212 212 227 159 161
169 176 170 168 164 164 160 170 185 195 195 217 213 234 249 242 242 236 232 228 222 221 229 230 233 242 216 206 204 193 185 188 205 206 208 204 203 214 212 221 217 196 173
163 164 164 159 160 161 149 146 153 146 178 207 202 220 208 234 236 233 224 228 218 231 233 232 234 231 232 203 209 211 175 205 157 191 205 201 195 198 197 215 213 187 170
154 157 156 154 155 151 165 164 174 194 224 107 245 187 222 223 222 228 230 210 213 221 230 231 219 224 203 191 197 222 268 300 180 171 210 194 188 185 163 214 135 151 145
148 150 151 151 156 151 158 165 168 206 161 185 194 194 245 195 209 203 200 212 221 227 222 216 182 189 215 207 189 207 220 258 249 212 162 164 175 151 124 138 113 118 122
146 147 149 150 146 154 160 153 172 152 192 213 209 228 214 172 217 201 196 210 220 219 200 198 192 205 203 214 215 222 200 202 194 212 174 154 124 143 139 124 117 104 108